User: anonymous   Login
Location: Hastringsfeld
(50.9620°N, 10.4787°E)
Time: 22:35:50
(UTC+00:00)
Language:

ATLAS 2AS CENTAUR R/B - Orbit

View from above orbital plane
View from above orbital plane
View from above satellite
View from above satellite

Ground track
Ground track

The orbit data is extracted from the following two-line orbital elements,

1 28096U 03054B   24049.85821646 0.00000050  00000-0  85629-4 0    08
2 28096  63.6781  19.3458 0135147 176.1113 183.8887 13.40956286    06
Epoch (UTC): 18 February 2024 20:35:49
Eccentricity: 0.0135147
inclination: 63.6781°
perigee height: 1004 km
apogee height: 1207 km
right ascension of ascending node: 19.3458°
argument of perigee: 176.1113°
revolutions per day: 13.40956286
mean anomaly at epoch: 183.8887°
orbit number at epoch: 0

The dashed part of the orbit path shows where the satellite is in the earth's shadow,  

DLR